SL-12 R/B(2), 19754

Orbit data source: Space-Track

SL-12 R/B(2), 19754 is space debris in MEO originally from a launch on Tue, 10 Jan 1989 UTC launched from the Tyuratam Missile And Space Complex (TTMTR). Debris objects in space refer to the collection of defunct objects orbiting the Earth. Examples of debris include non-operational satellites, rocket bodies, and fragments generated from explosions, collisions, or faulty payload assembly.

Loading next visibility...
Identifier
19754, 1989-001F
Orbit
MEO
Country
Flag of CISCIS
Related business
Manufacturer
NPO Energiya
Mission
Spacecraft
Bus & Motor
BLOK DM, Unknown motor
Mass
2,440 kg wet, 2,440 kg dry
Launch date (UTC)
1989-01-10 (37 years ago)
Launch vehicle
Unknown
Launch site
Tyuratam Missile And Space Complex (TTMTR)
Object type
Payload
Rocket body
Debris
Shape & HBR
Cyl, 3.1 m
Radar Cross Section
23.597 m², Large (>1 m²)

Expand to show TLE details & history
Last TLE update: 4 days ago

TLE from 4 days ago
0 SL-12 R/B(2)
1 19754U 89001F   25254.81381160  .00000025  00000-0  00000-0 0  9997
2 19754  64.8027  80.3575 0015134 234.6511 130.8423  2.13420992285760
Epoch: 2025-09-11T19:31Z
TLE epoch observation values (Epoch: 2025-09-11T19:31:53.322Z)
Latitude
5.05105°
Longitude
158.68962°
Altitude
19,129.722 km
Speed
3.951 km/s
True Right ascension
05h 30m 55s
True Declination
5° 02' 34"
Sunlit
Object was in daylight at epoch
Visualization orbit readout
Latitude
Unknown
Longitude
Unknown
Altitude
Unknown
Speed
Unknown
Apparent Right ascension
Unknown
Apparent Declination
Unknown
Sunlit
N/A
Visualization observer readout
Local Sidereal Time
04:06:54
Azimuth
Unknown
Elevation
Unknown
Doppler factor
Unknown
Orbital elements
Apogee altitude
19,142.65 km
Perigee altitude
19,065.52 km
Semi-major axis
25,482.222 km
Eccentricity
0.00151
Inclination
64.8027°
RAAN
80.3575°
Arg. of periapsis
234.6511°
True anomaly
130.97333°
Mean anomaly
130.8423°
Eccentric anomaly
130.90783°
Mean motion
0.53356 °/min
Orbital period
674.71 mins
BSTAR
0
Loading maneuver chart data...
Computing Atmospheric mass density...

Documentation

Showing up to 5 results
|